Location: Gravenhurst
(44.9196°N, 79.3742°W)
Time: 14:59:08
(UTC-05:00)

N. Korean satellite - Pass Details

Date: 28 October 2019
Orbit: 456 x 506 km, 97.2° (Epoch: 18 November)

Event Time Altitude Azimuth Distance (km) Brightness Sun altitude
Rises 06:48:09 0° 19° (NNE) 2,588 10.4 -11.5°
Reaches altitude 10° 06:50:20 10° 27° (NNE) 1,707 9.6 -11.1°
Maximum altitude 06:53:48 39° 98° (E) 764 8.3 -10.5°
Drops below altitude 10° 06:57:17 10° 168° (SSE) 1,710 9.6 -9.9°
Sets 06:59:27 0° 177° (S) 2,592 10.4 -9.5°
